QZS-2 (QZSS/PRN 184) (42738 NORAD) Tracking and Keplerian Element Data

This shows tracking and keplerian element data for the satellite.

Feedback or suggestion? Click here.




ElementValue
Catalog42738
NameQZS-2 (QZSS/PRN 184)
Epoch Orbit532
Epoch Day315.24006024
Epoch Year2018
RAAN282.5467
Inclination43.9666
Eccentricity0.0726756
Argument of Perigee272.6765
Mean Anonmoly78.9568
Mean Motion1.00250437
Decay Rate-2.46E-06
L11 42738U 17028A 18315.24006024 -.00000246 00000-0 00000+0 0 9990
L22 42738 43.9666 282.5467 0726756 272.6765 78.9568 1.00250437 5327

Live tracking and technical data element details for QZS-2 (QZSS/PRN 184) (NORAD 42738). QZS-2 (QZSS/PRN 184) can be tracked NOW for your location showing map with azimuth and elevation plus other details from your city location.

Track the satellite on the map from your city or location and see movement details for azimuth, elevation, latitude, longitude, range, height, and movement on the map or in text.







IsCatalogInMostPopularTable: catalog: 42738, numindb: 149
Update: records affected: 1



GetName: 42738 QZS-2 (QZSS/PRN 184)

Hit Count: updated at: Mon, 12 Nov 2018 18:39:32 GMT